Location: Ariel
(45.9570°N, 122.5700°W)
Time: 04:12:43
(UTC-07:00)

Tiros 1 - Pass Details

Date: 25 July 2019
Orbit: 630 x 664 km, 48.4° (Epoch: 21 August)

Event Time Altitude Azimuth Distance (km) Brightness Sun altitude
Rises 17:09:18 0° 289° (WNW) 2,999 11.3 35.9°
Reaches altitude 10° 17:11:43 10° 284° (WNW) 2,084 10.9 35.5°
Maximum altitude 17:16:20 48° 211° (SSW) 867 8.8 34.7°
Drops below altitude 10° 17:20:55 10° 138° (SE) 2,066 9.5 33.9°
Sets 17:23:18 0° 132° (SE) 2,970 10.2 33.5°
